Location: Acheville
(50.3840°N, 2.8827°E)
Time: 14:28:47
(UTC+00:00)

Cosmos 2360 Rocket - Pass Details

Date: 24 October 2021
Orbit: 832 x 846 km, 71.0° (Epoch: 27 November)

Event Time Altitude Azimuth Distance (km) Brightness Sun altitude
Rises 19:57:59 0° 234° (SW) 3,384 5.7 -32.0°
Reaches altitude 10° 20:00:35 10° 241° (WSW) 2,456 5.0 -32.4°
Maximum altitude 20:05:51 39° 310° (NW) 1,240 3.4 -33.2°
Enters shadow 20:07:50 30° 353° (N) 1,478 3.6 -33.5°
